Eiwamaru — JG5742 — position and weather

sailwx.info

Track history (hours):
 
Tides and Currents Weather Stations Pressure Air Temp Water Temp Dewpoint Dewpoint Depression Visibility Wind Speed Wind Dir Waves Ship Positions

Eiwamaru

Last reported at 2014-Oct-21 21:34 UTC. Time now 2014-Oct-21 21:37 UTC.
Position N 35°30' E 139°50'.

Length 80 m; draft 5.3 m.

Type: Tanker. MMSI: 431101045.

Date/timePositionNaut miles runAvg speedWind from/ knotsBaromVisibWave heightAir tempDewpointWater temp
2014-Oct-21 21:34N 35°30' E 139°50'0 0.0
2014-Oct-21 20:34N 35°30' E 139°50'0 0.1
2014-Oct-21 19:34N 35°30' E 139°50'0 0.0
2014-Oct-21 18:26N 35°30' E 139°50'0 0.0
2014-Oct-21 17:33N 35°30' E 139°50'0 0.0
2014-Oct-21 16:33N 35°30' E 139°50'0 0.0
2014-Oct-21 15:34N 35°30' E 139°50'0 0.0
2014-Oct-21 14:33N 35°30' E 139°50'0 0.0
2014-Oct-21 13:32N 35°30' E 139°50'0 0.1
2014-Oct-21 12:34N 35°30' E 139°50'0 0.0
2014-Oct-21 11:33N 35°30' E 139°50'0 0.0
2014-Oct-21 10:32N 35°30' E 139°50'0 0.0
2014-Oct-21 09:23N 35°30' E 139°50'0 0.1
2014-Oct-21 08:33N 35°30' E 139°50'7 0.4
2014-Oct-20 16:33N 35°31' E 139°59'0 0.0
2014-Oct-20 15:33N 35°31' E 139°59'0 0.0
2014-Oct-20 14:33N 35°31' E 139°59'3 3.0
2014-Oct-20 13:28N 35°30' E 139°56'1112.2
2014-Oct-20 12:34N 35°22' E 139°45'1211.3
2014-Oct-20 11:31N 35°11' E 139°47'240 9.6
2014-Oct-19 10:33N 34°08' E 135°05'2 0.3
2014-Oct-19 03:25N 34°07' E 135°07'0 0.1
2014-Oct-19 00:33N 34°07' E 135°07'0 0.3
2014-Oct-18 23:30N 34°08' E 135°07'0 0.1
2014-Oct-18 22:34N 34°08' E 135°07'0 0.1
2014-Oct-18 21:33N 34°08' E 135°07'0 0.1
2014-Oct-18 20:33N 34°08' E 135°07'0 0.0
2014-Oct-18 19:34N 34°08' E 135°07'0 0.1
2014-Oct-18 18:33N 34°08' E 135°07'0 0.1
2014-Oct-18 17:33N 34°08' E 135°07'0 0.1
2014-Oct-18 16:33N 34°08' E 135°07'0 0.0
2014-Oct-18 15:33N 34°08' E 135°07'1 0.1
2014-Oct-18 10:22N 34°07' E 135°07'0 0.2
2014-Oct-18 09:21N 34°07' E 135°07'0 0.0
2014-Oct-18 08:31N 34°07' E 135°07'0 0.0
2014-Oct-18 07:31N 34°07' E 135°07'5 5.4
2014-Oct-18 06:34N 34°11' E 135°03'21 9.9
2014-Oct-18 04:30N 34°29' E 135°14'1011.0
2014-Oct-18 03:34N 34°33' E 135°26'0 0.1
2014-Oct-18 02:33N 34°33' E 135°26'0 0.0
2014-Oct-18 01:33N 34°33' E 135°26'0 0.0
2014-Oct-18 00:33N 34°33' E 135°26'0 0.0
2014-Oct-17 23:34N 34°33' E 135°26'0 0.0
2014-Oct-17 22:33N 34°33' E 135°26'1 0.7
2014-Oct-17 21:33N 34°33' E 135°25'2 0.7
2014-Oct-17 18:15N 34°31' E 135°24'0 0.0
2014-Oct-17 15:18N 34°31' E 135°24'0 0.0
2014-Oct-17 12:32N 34°31' E 135°24'0 0.0
2014-Oct-17 11:23N 34°31' E 135°24'0 0.0
2014-Oct-17 10:33N 34°31' E 135°24'0 0.0
2014-Oct-17 09:19N 34°31' E 135°24'0 0.0
2014-Oct-17 02:20N 34°31' E 135°24'0 0.0
2014-Oct-17 00:06N 34°31' E 135°24'0 0.0
2014-Oct-16 23:31N 34°31' E 135°24'4 4.4
2014-Oct-16 22:33N 34°32' E 135°19'0 0.0
2014-Oct-16 21:33N 34°32' E 135°19'0 0.0
2014-Oct-16 20:33N 34°32' E 135°19'0 0.0
2014-Oct-16 19:33N 34°32' E 135°19'0 0.0
2014-Oct-16 18:33N 34°32' E 135°19'0 0.0
2014-Oct-16 17:33N 34°32' E 135°19'0 0.0
2014-Oct-16 16:33N 34°32' E 135°19'0 0.0
2014-Oct-16 15:33N 34°32' E 135°19'0 0.0
2014-Oct-16 14:32N 34°32' E 135°19'0 0.0
2014-Oct-16 13:33N 34°32' E 135°19'8 8.4
2014-Oct-16 12:33N 34°27' E 135°11'1413.0
2014-Oct-16 11:31N 34°17' E 134°59'12 2.3
2014-Oct-16 06:18N 34°07' E 135°07'1 0.8
2014-Oct-16 05:26N 34°08' E 135°07'0 0.0
2014-Oct-16 04:28N 34°08' E 135°07'0 0.0
2014-Oct-16 03:33N 34°08' E 135°07'0 0.0
2014-Oct-16 02:32N 34°08' E 135°07'0 0.0
2014-Oct-16 01:30N 34°08' E 135°07'0 0.0
2014-Oct-16 00:33N 34°08' E 135°07'0 0.0
2014-Oct-15 23:32N 34°08' E 135°07'0 0.0
2014-Oct-15 22:32N 34°08' E 135°07'0 0.1
2014-Oct-15 21:33N 34°08' E 135°07'0 0.0
2014-Oct-15 20:33N 34°08' E 135°07'0 0.0
2014-Oct-15 19:33N 34°08' E 135°07'0 0.0
2014-Oct-15 18:33N 34°08' E 135°07'0 0.0
2014-Oct-15 17:33N 34°08' E 135°07'0 0.0
2014-Oct-15 16:33N 34°08' E 135°07'0 0.0
2014-Oct-15 15:33N 34°08' E 135°07'0 0.0
2014-Oct-15 14:33N 34°08' E 135°07'0 0.0
2014-Oct-15 13:33N 34°08' E 135°07'0 0.0
2014-Oct-15 12:33N 34°08' E 135°07'0 0.0
2014-Oct-15 11:33N 34°08' E 135°07'0 0.0
2014-Oct-15 10:25N 34°08' E 135°07'  
Track history (hours):
 
Tides and Currents Weather Stations Pressure Air Temp Water Temp Dewpoint Dewpoint Depression Visibility Wind Speed Wind Dir Waves Ship Positions

Eiwamaru

Last reported at 2014-Oct-21 21:34 UTC. Time now 2014-Oct-21 21:37 UTC.
Position N 35°30' E 139°50'.

Length 80 m; draft 5.3 m.

Type: Tanker. MMSI: 431101045.

Date/timePositionNaut miles runAvg speedWind from/ knotsBaromVisibWave heightAir tempDewpointWater temp
2014-Oct-21 21:34N 35°30' E 139°50'0 0.0
2014-Oct-21 20:34N 35°30' E 139°50'0 0.1
2014-Oct-21 19:34N 35°30' E 139°50'0 0.0
2014-Oct-21 18:26N 35°30' E 139°50'0 0.0
2014-Oct-21 17:33N 35°30' E 139°50'0 0.0
2014-Oct-21 16:33N 35°30' E 139°50'0 0.0
2014-Oct-21 15:34N 35°30' E 139°50'0 0.0
2014-Oct-21 14:33N 35°30' E 139°50'0 0.0
2014-Oct-21 13:32N 35°30' E 139°50'0 0.1
2014-Oct-21 12:34N 35°30' E 139°50'0 0.0
2014-Oct-21 11:33N 35°30' E 139°50'0 0.0
2014-Oct-21 10:32N 35°30' E 139°50'0 0.0
2014-Oct-21 09:23N 35°30' E 139°50'0 0.1
2014-Oct-21 08:33N 35°30' E 139°50'7 0.4
2014-Oct-20 16:33N 35°31' E 139°59'0 0.0
2014-Oct-20 15:33N 35°31' E 139°59'0 0.0
2014-Oct-20 14:33N 35°31' E 139°59'3 3.0
2014-Oct-20 13:28N 35°30' E 139°56'1112.2
2014-Oct-20 12:34N 35°22' E 139°45'1211.3
2014-Oct-20 11:31N 35°11' E 139°47'240 9.6
2014-Oct-19 10:33N 34°08' E 135°05'2 0.3
2014-Oct-19 03:25N 34°07' E 135°07'0 0.1
2014-Oct-19 00:33N 34°07' E 135°07'0 0.3
2014-Oct-18 23:30N 34°08' E 135°07'0 0.1
2014-Oct-18 22:34N 34°08' E 135°07'0 0.1
2014-Oct-18 21:33N 34°08' E 135°07'0 0.1
2014-Oct-18 20:33N 34°08' E 135°07'0 0.0
2014-Oct-18 19:34N 34°08' E 135°07'0 0.1
2014-Oct-18 18:33N 34°08' E 135°07'0 0.1
2014-Oct-18 17:33N 34°08' E 135°07'0 0.1
2014-Oct-18 16:33N 34°08' E 135°07'0 0.0
2014-Oct-18 15:33N 34°08' E 135°07'1 0.1
2014-Oct-18 10:22N 34°07' E 135°07'0 0.2
2014-Oct-18 09:21N 34°07' E 135°07'0 0.0
2014-Oct-18 08:31N 34°07' E 135°07'0 0.0
2014-Oct-18 07:31N 34°07' E 135°07'5 5.4
2014-Oct-18 06:34N 34°11' E 135°03'21 9.9
2014-Oct-18 04:30N 34°29' E 135°14'1011.0
2014-Oct-18 03:34N 34°33' E 135°26'0 0.1
2014-Oct-18 02:33N 34°33' E 135°26'0 0.0
2014-Oct-18 01:33N 34°33' E 135°26'0 0.0
2014-Oct-18 00:33N 34°33' E 135°26'0 0.0
2014-Oct-17 23:34N 34°33' E 135°26'0 0.0
2014-Oct-17 22:33N 34°33' E 135°26'1 0.7
2014-Oct-17 21:33N 34°33' E 135°25'2 0.7
2014-Oct-17 18:15N 34°31' E 135°24'0 0.0
2014-Oct-17 15:18N 34°31' E 135°24'0 0.0
2014-Oct-17 12:32N 34°31' E 135°24'0 0.0
2014-Oct-17 11:23N 34°31' E 135°24'0 0.0
2014-Oct-17 10:33N 34°31' E 135°24'0 0.0
2014-Oct-17 09:19N 34°31' E 135°24'0 0.0
2014-Oct-17 02:20N 34°31' E 135°24'0 0.0
2014-Oct-17 00:06N 34°31' E 135°24'0 0.0
2014-Oct-16 23:31N 34°31' E 135°24'4 4.4
2014-Oct-16 22:33N 34°32' E 135°19'0 0.0
2014-Oct-16 21:33N 34°32' E 135°19'0 0.0
2014-Oct-16 20:33N 34°32' E 135°19'0 0.0
2014-Oct-16 19:33N 34°32' E 135°19'0 0.0
2014-Oct-16 18:33N 34°32' E 135°19'0 0.0
2014-Oct-16 17:33N 34°32' E 135°19'0 0.0
2014-Oct-16 16:33N 34°32' E 135°19'0 0.0
2014-Oct-16 15:33N 34°32' E 135°19'0 0.0
2014-Oct-16 14:32N 34°32' E 135°19'0 0.0
2014-Oct-16 13:33N 34°32' E 135°19'8 8.4
2014-Oct-16 12:33N 34°27' E 135°11'1413.0
2014-Oct-16 11:31N 34°17' E 134°59'12 2.3
2014-Oct-16 06:18N 34°07' E 135°07'1 0.8
2014-Oct-16 05:26N 34°08' E 135°07'0 0.0
2014-Oct-16 04:28N 34°08' E 135°07'0 0.0
2014-Oct-16 03:33N 34°08' E 135°07'0 0.0
2014-Oct-16 02:32N 34°08' E 135°07'0 0.0
2014-Oct-16 01:30N 34°08' E 135°07'0 0.0
2014-Oct-16 00:33N 34°08' E 135°07'0 0.0
2014-Oct-15 23:32N 34°08' E 135°07'0 0.0
2014-Oct-15 22:32N 34°08' E 135°07'0 0.1
2014-Oct-15 21:33N 34°08' E 135°07'0 0.0
2014-Oct-15 20:33N 34°08' E 135°07'0 0.0
2014-Oct-15 19:33N 34°08' E 135°07'0 0.0
2014-Oct-15 18:33N 34°08' E 135°07'0 0.0
2014-Oct-15 17:33N 34°08' E 135°07'0 0.0
2014-Oct-15 16:33N 34°08' E 135°07'0 0.0
2014-Oct-15 15:33N 34°08' E 135°07'0 0.0
2014-Oct-15 14:33N 34°08' E 135°07'0 0.0
2014-Oct-15 13:33N 34°08' E 135°07'0 0.0
2014-Oct-15 12:33N 34°08' E 135°07'0 0.0
2014-Oct-15 11:33N 34°08' E 135°07'0 0.0
2014-Oct-15 10:25N 34°08' E 135°07'  

Dump ship's entire track history